Flag for U.S.A. Weather past 2 weeks in Albuquerque, New Mexico, U.S.A.

Now
57 °F

Partly sunny.


Feels Like: 57 °F
Forecast: 42 / 73 °F
Wind: 3 mph from North

Location: Albuquerque International Airport


UV Index: 7 (High)

Visibility: 10 mi


Pressure: 30.03 "Hg

Humidity: 15%

Dew point: 10 °F

Location of AlbuquerqueLocation

Historic Weather in Albuquerque

°F

Albuquerque temperature yesterday

Maximum temperature yesterday: 75 °F (at 2:52 PM)
Minimum temperature yesterday: 53 °F (at 6:52 AM)
Average temperature yesterday: 64 °F

Past Weeks' High & Low Weather Summary

 TemperatureHumidityPressure
High81 °F (Apr 22, 4:52 PM)93% (Apr 20, 2:52 AM)30.18 "Hg (Apr 20, 2:52 AM)
Low34 °F (Apr 15, 5:52 AM)5% (Apr 10, 1:52 PM)29.42 "Hg (Apr 13, 3:52 PM)
Average60 °F27%29.87 "Hg
* Reported Apr 9 9:52 AM — Apr 24 9:52 AM, Albuquerque, Weather by CustomWeather, © 2014

Note: Actual official high and low records may vary slightly from our data, if they occured in-between our weather recording intervals... More about our weather records

Advertising

Historic Weather Conditions — Data for Previous 24 hours

 ConditionsComfort  
Time TempWeatherWind HumidityBarometerVisibility
9:52 AM
Apr 24
55 °FPassing clouds.10 mph16%30.03 "Hg10 mi
8:52 AM52 °FPassing clouds.9 mph19%30.02 "Hg10 mi
7:52 AM49 °FPassing clouds.8 mph22%30.01 "Hg10 mi
6:52 AM47 °FClear.16 mph22%29.96 "Hg10 mi
5:52 AM48 °FClear.18 mph20%29.92 "Hg10 mi
4:52 AM47 °FClear.8 mph24%29.90 "Hg10 mi
3:52 AM49 °FClear.6 mph22%29.88 "Hg10 mi
2:52 AM51 °FClear.7 mph19%29.85 "Hg10 mi
1:52 AM52 °FClear.14 mph18%29.82 "Hg10 mi
12:52 AM53 °FClear.8 mph19%29.80 "Hg10 mi
11:52 PM
Apr 23
55 °FClear.16 mph18%29.79 "Hg10 mi
10:52 PM57 °FClear.12 mph16%29.76 "Hg10 mi
9:52 PM57 °FPassing clouds.7 mph20%29.72 "Hg10 mi
8:52 PM61 °FPassing clouds.16 mph17%29.70 "Hg10 mi
7:52 PM63 °FScattered clouds.21 mph17%29.66 "Hg10 mi
6:52 PM64 °FBroken clouds.18 mph21%29.65 "Hg10 mi
5:52 PM69 °FPartly sunny.30 mph10%29.57 "Hg10 mi
4:52 PM72 °FMostly cloudy.26 mph11%29.54 "Hg10 mi
3:55 PM71 °FCloudy.15 mph12%29.76 "Hg10 mi
2:52 PM75 °FPartly sunny.21 mph10%29.54 "Hg10 mi
1:52 PM74 °FScattered clouds.22 mph9%29.57 "Hg10 mi
12:52 PM71 °FPassing clouds.14 mph14%29.62 "Hg10 mi
11:52 AM69 °FPassing clouds.13 mph16%29.66 "Hg10 mi
Weather by CustomWeather, © 2014

See weather overview